Flag for Germany Weather past 2 weeks in Waren (Müritz), Mecklenburg-Western Pomerania, Germany

Now
52 °F

Fog.


Feels Like: 51 °F
Forecast: 46 / 58 °F
Wind: 5 mph from Southwest

Location: Laage

Current Time: Oct 26, 2014 at 3:11:19 AM

Latest Report: Oct 26, 2014 at 2:20 AM


Visibility: 3 mi

Pressure: 30.18 "Hg

Humidity: 94%

Dew point: 50 °F

Location of Waren (Müritz)Location

Historic Weather in Waren (Müritz) — Graph

°F

Waren (Müritz) temperature yesterday

Maximum temperature yesterday: 52 °F (at 1:20 PM)
Minimum temperature yesterday: 45 °F (at 12:20 AM)
Average temperature yesterday: 48 °F

Past Weeks' High & Low Weather Summary

 TemperatureHumidityPressure
High70 °F (Oct 19, 2:20 PM)100% (Oct 11, 4:20 AM)30.21 "Hg (Oct 11, 4:20 AM)
Low45 °F (Oct 24, 11:20 PM)63% (Oct 20, 3:20 PM)29.39 "Hg (Oct 21, 9:20 PM)
Average54 °F92%29.88 "Hg
* Reported Oct 11 2:20 AM — Oct 26 2:20 AM, Waren (Müritz), Weather by CustomWeather, © 2014

Note: Actual official high and low records may vary slightly from our data, if they occured in-between our weather recording intervals... More about our weather records

Advertising

Waren (Müritz) weather history for previous 24 hours

 ConditionsComfort  
Time TempWeatherWind HumidityBarometerVisibility
2:20 AM
Oct 26
52 °FPassing clouds.5 mph94%30.18 "Hg4 mi
1:20 AM52 °FFog.8 mph94%30.15 "Hg3 mi
12:50 AM52 °FFog.5 mph94%30.15 "Hg2 mi
12:20 AM52 °FFog.5 mph94%30.15 "Hg3 mi
11:48 PM
Oct 25
52 °FFog.5 mph94%30.15 "Hg3 mi
11:20 PM52 °FPassing clouds.5 mph94%30.12 "Hg4 mi
10:51 PM52 °FFog.7 mph94%30.15 "Hg2 mi
10:20 PM52 °FFog.5 mph94%30.12 "Hg1 mi
9:20 PM50 °FFog.6 mph100%30.12 "Hg1 mi
8:46 PM50 °FFog.6 mph100%30.12 "Hg1 mi
8:20 PM50 °FFog.6 mph100%30.12 "Hg1 mi
7:20 PM50 °FFog.7 mph94%30.09 "Hg1 mi
6:20 PM50 °FDrizzle. Fog.6 mph94%30.09 "Hg1 mi
5:20 PM50 °FDrizzle. Partly sunny.6 mph94%30.09 "Hg1 mi
4:20 PM50 °FDrizzle. Low clouds.8 mph94%30.07 "Hg3 mi
3:20 PM52 °FOvercast.8 mph82%30.07 "Hg4 mi
2:20 PM52 °FPartly sunny.8 mph82%30.07 "Hg4 mi
2:03 PM52 °FPartly sunny.8 mph82%30.07 "Hg4 mi
1:20 PM52 °FBroken clouds.8 mph82%30.07 "Hg4 mi
12:20 PM48 °FBroken clouds.8 mph87%30.07 "Hg4 mi
11:20 AM46 °FBroken clouds.6 mph93%30.07 "Hg4 mi
10:20 AM46 °FFog.7 mph87%30.07 "Hg3 mi
9:20 AM45 °FFog.7 mph93%30.07 "Hg3 mi
8:20 AM45 °FLight rain. Fog.7 mph93%30.07 "Hg3 mi
8:01 AM45 °FLight rain. Fog.7 mph93%30.07 "Hg3 mi
7:20 AM45 °FPassing clouds.8 mph93%30.07 "Hg4 mi
6:45 AM45 °FPassing clouds.8 mph93%30.07 "Hg4 mi
6:20 AM45 °FPassing clouds.9 mph93%30.07 "Hg4 mi
5:20 AM45 °FLight rain. Passing clouds.9 mph93%30.07 "Hg4 mi
4:20 AM45 °FLight rain. Passing clouds.9 mph93%30.07 "Hg4 mi
3:20 AM45 °FLight rain. Passing clouds.8 mph93%30.09 "Hg4 mi
Weather by CustomWeather, © 2014

See weather overviewHow to use our weather pages